EPIC254 KMIA-KTPA

Flight info

Callsign EPIC254
Flight time N/A
Altitude 4000
Route KMIA DCT COREA DCT KTPA
Aircraft TBM9/L-SB3/S

Departure

Time 2026-05-06 00:55
Airport Miami International Airport (KMIA)

Arrival

Time N/A
Airport Tampa International Airport (KTPA)
Time Latitude Longitude Altitude Speed Heading
2026-05-06 00:48 25.78971 -80.30477 14 ft 0 kts 88°
2026-05-06 00:50 25.78971 -80.30478 14 ft 2 kts 88°
2026-05-06 00:50 25.78971 -80.30497 14 ft 2 kts 92°
2026-05-06 00:51 25.78976 -80.30513 14 ft 2 kts 149°
2026-05-06 00:51 25.78980 -80.30515 14 ft 0 kts 168°
2026-05-06 00:53 25.78977 -80.30514 14 ft 6 kts 172°
2026-05-06 00:53 25.78879 -80.30558 14 ft 19 kts 196°
2026-05-06 00:53 25.78836 -80.30709 12 ft 32 kts 270°
2026-05-06 00:53 25.78823 -80.31027 15 ft 50 kts 267°
2026-05-06 00:54 25.78807 -80.31407 17 ft 25 kts 268°
2026-05-06 00:54 25.78743 -80.31499 15 ft 25 kts 191°
2026-05-06 00:54 25.78624 -80.31448 12 ft 29 kts 105°
2026-05-06 00:54 25.78631 -80.30980 21 ft 91 kts 87°
2026-05-06 00:55 25.78651 -80.30144 129 ft 133 kts 89°
2026-05-06 00:55 25.78626 -80.29039 621 ft 143 kts 89°
2026-05-06 00:55 25.78570 -80.27913 1210 ft 149 kts 92°
2026-05-06 00:55 25.78537 -80.26771 1733 ft 150 kts 81°
2026-05-06 00:56 25.79111 -80.25845 2250 ft 154 kts 31°
2026-05-06 00:56 25.80185 -80.25763 2747 ft 163 kts 341°
2026-05-06 00:56 25.81191 -80.26363 3267 ft 165 kts 331°
2026-05-06 00:56 25.82193 -80.26973 3804 ft 164 kts 331°
2026-05-06 00:57 25.83259 -80.27587 4001 ft 186 kts 332°
2026-05-06 00:57 25.84486 -80.28288 4008 ft 209 kts 332°
2026-05-06 00:57 25.85676 -80.29280 4022 ft 222 kts 308°
2026-05-06 00:57 25.86494 -80.30770 4021 ft 230 kts 295°
2026-05-06 00:58 25.87136 -80.32416 4020 ft 234 kts 292°
2026-05-06 00:58 25.87254 -80.32733 4019 ft 235 kts 292°
2026-05-06 00:58 25.87586 -80.33625 4017 ft 236 kts 292°
2026-05-06 00:58 25.88210 -80.35321 4018 ft 238 kts 292°
2026-05-06 00:59 25.88831 -80.37003 4018 ft 239 kts 292°
2026-05-06 00:59 25.89463 -80.38713 4018 ft 240 kts 292°
2026-05-06 00:59 25.90199 -80.40384 4018 ft 244 kts 300°
2026-05-06 00:59 25.91232 -80.41905 4017 ft 250 kts 313°
2026-05-06 01:00 25.92514 -80.43215 4012 ft 250 kts 318°
2026-05-06 01:00 25.93796 -80.44524 4014 ft 251 kts 315°
2026-05-06 01:00 25.95030 -80.45892 4017 ft 250 kts 315°
2026-05-06 01:00 25.96264 -80.47257 4015 ft 250 kts 315°
2026-05-06 01:01 25.97501 -80.48608 4014 ft 249 kts 315°
2026-05-06 01:01 25.98740 -80.49955 4012 ft 249 kts 315°
2026-05-06 01:01 25.99974 -80.51307 4010 ft 249 kts 315°
2026-05-06 01:01 26.01212 -80.52661 4008 ft 250 kts 315°
2026-05-06 01:02 26.02449 -80.54013 3996 ft 250 kts 314°
2026-05-06 01:02 26.03692 -80.55368 3998 ft 251 kts 314°
2026-05-06 01:02 26.04928 -80.56735 3995 ft 251 kts 314°
2026-05-06 01:02 26.06171 -80.58096 3997 ft 251 kts 315°
2026-05-06 01:03 26.07419 -80.59457 3994 ft 251 kts 314°
2026-05-06 01:03 26.08664 -80.60824 3995 ft 252 kts 315°
2026-05-06 01:03 26.09913 -80.62191 3992 ft 252 kts 314°
2026-05-06 01:03 26.11159 -80.63559 3992 ft 252 kts 314°
2026-05-06 01:04 26.12408 -80.64929 3992 ft 252 kts 314°
2026-05-06 01:04 26.13655 -80.66298 3992 ft 252 kts 315°
2026-05-06 01:04 26.14903 -80.67667 3992 ft 252 kts 315°
2026-05-06 01:04 26.16151 -80.69037 3991 ft 252 kts 315°
2026-05-06 01:05 26.17398 -80.70408 3992 ft 252 kts 315°
2026-05-06 01:05 26.18643 -80.71776 3991 ft 251 kts 314°
2026-05-06 01:05 26.19889 -80.73144 3993 ft 251 kts 314°
2026-05-06 01:05 26.21131 -80.74512 4000 ft 251 kts 315°
2026-05-06 01:06 26.22376 -80.75879 4001 ft 251 kts 314°
2026-05-06 01:06 26.23620 -80.77250 3997 ft 252 kts 314°
2026-05-06 01:06 26.24867 -80.78622 3995 ft 252 kts 314°
2026-05-06 01:06 26.26113 -80.79994 3998 ft 252 kts 315°
2026-05-06 01:07 26.27358 -80.81367 3997 ft 252 kts 315°
2026-05-06 01:07 26.28606 -80.82740 3997 ft 252 kts 315°
2026-05-06 01:07 26.29855 -80.84116 3996 ft 253 kts 315°
2026-05-06 01:07 26.31105 -80.85493 3997 ft 253 kts 315°
2026-05-06 01:08 26.32355 -80.86872 3995 ft 253 kts 315°
2026-05-06 01:08 26.33605 -80.88251 4001 ft 253 kts 315°
2026-05-06 01:08 26.34855 -80.89631 4000 ft 253 kts 315°
2026-05-06 01:08 26.36104 -80.91010 4000 ft 253 kts 314°
2026-05-06 01:09 26.37342 -80.92368 3996 ft 253 kts 314°
2026-05-06 01:09 26.38590 -80.93758 3997 ft 254 kts 314°
2026-05-06 01:09 26.39844 -80.95144 3996 ft 254 kts 314°
2026-05-06 01:09 26.41101 -80.96528 3998 ft 254 kts 314°
2026-05-06 01:10 26.42358 -80.97917 3997 ft 254 kts 314°
2026-05-06 01:10 26.43614 -80.99309 3999 ft 255 kts 314°
2026-05-06 01:10 26.44875 -81.00701 3997 ft 255 kts 314°
2026-05-06 01:10 26.46135 -81.02097 3998 ft 255 kts 314°
2026-05-06 01:11 26.47397 -81.03491 4009 ft 255 kts 314°
2026-05-06 01:11 26.48656 -81.04888 4009 ft 255 kts 314°
2026-05-06 01:11 26.49917 -81.06284 4004 ft 256 kts 314°
2026-05-06 01:11 26.51185 -81.07688 4003 ft 255 kts 314°
2026-05-06 01:12 26.52447 -81.09085 4000 ft 255 kts 314°
2026-05-06 01:12 26.53703 -81.10480 4002 ft 255 kts 314°
2026-05-06 01:12 26.54959 -81.11877 4003 ft 255 kts 314°
2026-05-06 01:12 26.56218 -81.13270 4003 ft 255 kts 314°
2026-05-06 01:13 26.57477 -81.14667 4002 ft 255 kts 314°
2026-05-06 01:13 26.58733 -81.16062 4003 ft 255 kts 314°
2026-05-06 01:13 26.59988 -81.17457 4008 ft 255 kts 314°
2026-05-06 01:13 26.61228 -81.18833 4007 ft 255 kts 314°
2026-05-06 01:14 26.63745 -81.21617 4006 ft 254 kts 316°
2026-05-06 01:14 26.65089 -81.22903 4003 ft 255 kts 319°
2026-05-06 01:14 26.66428 -81.24196 4003 ft 254 kts 318°
2026-05-06 01:15 26.67760 -81.25498 4003 ft 254 kts 318°
2026-05-06 01:15 26.69095 -81.26793 4005 ft 254 kts 319°
2026-05-06 01:15 26.70433 -81.28088 4004 ft 254 kts 318°
2026-05-06 01:15 26.71767 -81.29393 4001 ft 256 kts 318°
2026-05-06 01:16 26.73117 -81.30695 4004 ft 257 kts 318°
2026-05-06 01:16 26.74473 -81.32001 4003 ft 257 kts 318°
2026-05-06 01:16 26.75822 -81.33317 4004 ft 258 kts 318°
2026-05-06 01:16 26.77173 -81.34632 4005 ft 257 kts 318°
2026-05-06 01:17 26.78525 -81.35947 4005 ft 258 kts 318°
2026-05-06 01:17 26.79880 -81.37262 4003 ft 257 kts 318°
2026-05-06 01:17 26.81231 -81.38576 4003 ft 257 kts 319°
2026-05-06 01:17 26.82582 -81.39890 4001 ft 257 kts 318°
2026-05-06 01:18 26.83930 -81.41203 4002 ft 257 kts 319°
2026-05-06 01:18 26.85280 -81.42513 4002 ft 257 kts 319°
2026-05-06 01:18 26.86629 -81.43826 4001 ft 257 kts 318°
2026-05-06 01:18 26.87978 -81.45143 4005 ft 257 kts 318°
2026-05-06 01:19 26.89331 -81.46459 4003 ft 258 kts 318°
2026-05-06 01:19 26.90681 -81.47774 4003 ft 257 kts 318°
2026-05-06 01:19 26.92030 -81.49090 4002 ft 257 kts 318°
2026-05-06 01:19 26.93379 -81.50407 4002 ft 257 kts 319°
2026-05-06 01:20 26.94729 -81.51720 4005 ft 257 kts 318°
2026-05-06 01:20 26.96077 -81.53036 4005 ft 257 kts 318°
2026-05-06 01:20 26.97423 -81.54351 4006 ft 256 kts 319°
2026-05-06 01:20 26.98770 -81.55665 4010 ft 257 kts 318°
2026-05-06 01:21 27.00115 -81.56979 4010 ft 256 kts 318°
2026-05-06 01:21 27.01460 -81.58294 4010 ft 257 kts 318°
2026-05-06 01:21 27.02807 -81.59610 4010 ft 257 kts 318°
2026-05-06 01:21 27.04155 -81.60927 4010 ft 257 kts 318°
2026-05-06 01:22 27.05501 -81.62242 4006 ft 256 kts 318°